#timestamp,LO_Frequency,Hit,StdDev 
1574197215.5,286046995.5,N
1574197235.3,286046993.0,N
1574197255.2,286046993.4,N
1574197275.0,286046995.9,N
1574197275.9,286046995.9,N
1574197325.8,286046997.6,E
1574197335.7,286046996.5,N
1574197355.5,286046996.7,P
1574197375.4,286047001.6,P
1574197395.2,286046996.5,N
1574197415.1,286046995.4,N
1574197416.0,286046995.4,N
1574197435.8,286046994.8,N
1574197455.6,286046994.0,N
1574197475.5,286046995.4,N
1574197495.3,286046999.1,N
1574197515.2,286046998.4,N
1574197535.9,286046999.1,N
1574197555.7,286047001.6,N
1574197575.6,286047005.2,N
1574197595.4,286047003.6,N
1574197615.2,286047000.0,N
1574197635.1,286046996.8,N
1574197636.0,286046996.8,N
1574197655.8,286047000.6,N
1574197675.7,286046999.2,N
1574197695.5,286046991.7,N
1574197715.3,286046993.9,N
1574197735.2,286046990.3,N
1574197755.0,286046995.1,N
1574197755.9,286046995.1,N
1574197775.8,286046996.2,N
1574197795.6,286046997.6,N
1574197815.4,286046999.5,N
1574197835.3,286046998.1,N
1574197855.1,286046996.9,N
1574197875.9,286047000.1,N
1574197895.7,286046997.8,N
1574197915.6,286046998.3,N
1574197935.4,286047003.7,N
1574197955.2,286047001.3,N
1574197975.1,286047003.4,N
1574197976.0,286047003.4,N
1574197995.8,286046998.2,N
1574198015.6,286046996.5,N
1574198035.5,286046992.3,N
1574198055.3,286046997.6,N
1574198075.2,286047002.1,N
1574198095.9,286047004.7,N
1574198115.7,286047007.4,N
1574198135.6,286047007.7,N
1574198155.4,286047007.8,N
1574198175.2,286047007.8,N
1574198195.1,286047003.7,N
1574198196.0,286047003.7,N
1574198215.8,286047003.8,N
1574198235.7,286047001.3,N
1574198255.5,286047007.7,N
1574198275.3,286047007.6,N
1574198295.2,286047005.1,N
1574198315.0,286047007.9,N
1574198315.9,286047007.9,N
1574198335.8,286047004.7,N
1574198355.6,286047002.9,N
1574198375.4,286047002.8,N
1574198395.3,286047006.0,N
1574198415.1,286047004.4,N
1574198435.8,286046999.4,N
1574198455.7,286047002.4,N
1574198475.5,286047002.6,N
1574198495.4,286046997.0,N
1574198515.2,286046997.2,N
1574198535.0,286046998.8,N
1574198535.9,286046998.8,N
1574198555.8,286047002.4,N
1574198575.6,286047003.4,N
1574198595.4,286047004.8,N
1574198615.3,286047010.3,Y
1574198635.1,286047003.6,P
1574198655.9,286047004.4,P
1574198675.7,286047004.1,P
1574198695.5,286047005.5,Y
1574198715.4,286046999.0,P
1574198735.2,286046992.9,N
1574198755.1,286046989.8,N
1574198756.0,286046989.8,N
1574198775.8,286046993.2,N
1574198795.6,286046994.5,N
1574198815.5,286046993.2,N
1574198835.3,286046994.0,N
1574198855.1,286046993.6,N
1574198875.9,286046992.7,N
1574198895.7,286046995.9,N
1574198915.6,286046997.6,N
1574198935.4,286046996.1,N
1574198955.2,286046994.3,N
1574198975.1,286046992.2,N
1574198976.0,286046992.2,N
1574198995.8,286047000.9,N
1574199015.7,286046997.8,N
1574199035.5,286046998.1,N
1574199055.3,286046999.4,N
1574199075.2,286046997.3,N
1574199095.9,286046996.3,N
1574199115.7,286046998.0,N
1574199135.6,286046999.7,N
1574199155.4,286046996.8,N
1574199175.3,286046999.3,N
1574199195.1,286046996.6,N
1574199196.0,286046996.6,N
1574199215.8,286046993.7,N
1574199235.7,286046996.3,N
1574199255.5,286046996.1,N
1574199275.3,286047001.2,N
1574199295.2,286047004.0,N
1574199315.0,286047004.8,N
1574199315.9,286047004.8,N
1574199335.8,286047004.9,N
1574199355.6,286047000.0,N
1574199375.4,286046998.4,N
1574199395.3,286047002.4,N
1574199415.1,286047005.5,N
1574199435.8,286047001.3,N
1574199455.7,286047005.8,N
1574199475.5,286047006.2,N
1574199495.4,286046999.7,N
1574199515.2,286046995.4,N
1574199535.0,286046992.3,N
1574199535.9,286046992.3,N
1574199555.8,286046989.4,N
1574199575.6,286046988.2,N
1574199595.4,286046993.9,N
1574199615.3,286046995.0,N
1574199635.1,286046992.8,N
1574199655.9,286046989.8,N
1574199675.7,286046984.2,Y
1574199695.5,286046989.9,P
1574199715.4,286046991.1,N
1574199735.2,286046994.1,N
1574199755.0,286046997.8,N
1574199755.9,286046997.8,N
1574199775.8,286046999.8,N
1574199795.6,286046995.5,N
1574199815.5,286046996.2,N
1574199835.3,286046996.8,N
1574199855.1,286047000.3,N
1574199875.9,286046996.5,N
1574199895.7,286046998.6,N
1574199915.5,286046996.0,N
1574199935.4,286046998.0,N
1574199955.2,286047002.2,N
1574199975.1,286046999.4,N
1574199976.0,286046999.4,N
1574199995.8,286047001.0,N
1574200015.6,286047002.3,N
1574200035.5,286046995.6,N
1574200055.3,286046995.6,N
1574200075.1,286046997.7,N
1574200095.9,286046999.5,N
1574200115.7,286047002.4,N
1574200135.6,286046995.0,N
1574200155.4,286046994.1,N
1574200175.2,286046992.0,N
1574200195.1,286046997.2,N
1574200196.0,286046997.2,N
1574200215.8,286046999.2,N
1574200235.6,286046994.2,N
1574200255.5,286046997.3,N
1574200275.3,286046998.9,N
1574200295.2,286046998.7,N
1574200315.9,286046993.1,N
1574200335.7,286046991.7,Y
1574200355.6,286046998.9,P
1574200375.4,286046995.6,P
1574200395.2,286046994.5,P
1574200415.1,286046993.2,Y
1574200416.0,286046993.2,P
1574200435.8,286046999.1,N
1574200455.7,286046999.3,N
1574200475.5,286047000.6,N
1574200495.3,286047003.0,N
1574200515.2,286047003.5,N
1574200535.0,286047001.1,N
1574200535.9,286047001.1,N
1574200555.8,286047004.0,N
1574200575.6,286047004.1,N
1574200595.4,286047001.1,N
1574200615.3,286047004.3,N
1574200635.1,286046995.2,N
1574200655.9,286046991.8,N
1574200675.7,286046988.5,N
1574200695.5,286046993.7,N
1574200715.4,286046993.1,N
1574200735.2,286046998.3,N
1574200755.1,286046998.7,N
1574200756.0,286046998.7,N
1574200775.8,286047000.0,N
1574200795.6,286047003.7,N
